Location: Mohawk View
(42.7837°N, 73.7885°W)
Time: 10:14:41
(UTC+00:00)

Meteor 1-24 Rocket - Pass Details

Date: 28 October 2021
Orbit: 790 x 927 km, 81.3° (Epoch: 08 December)

Event Time Altitude Azimuth Distance (km) Brightness Sun altitude
Rises 22:37:18 0° 328° (NNW) 3,525 7.2 -8.8°
Reaches altitude 10° 22:41:45 10° 296° (WNW) 2,604 7.1 -9.6°
Maximum altitude 22:43:30 11° 279° (W) 2,513 7.5 -9.9°
Drops below altitude 10° 22:45:15 10° 262° (W) 2,615 7.9 -10.2°
Sets 22:49:46 0° 230° (SW) 3,563 8.0 -11.0°
